(201) Penelope
ephemeris date magn radius delta ra dec elong phase
Today3 Jul 202514.02.777 AU3.777 AU06h12m+19°30'9.0°3.3°
Opposition28 Jan 202612.83.072 AU2.089 AU08h39m+14°12'175.9°1.3°
(201) Penelope - 2025-07-03
astro.vanbuitenen.nl


 
-1 year
-1 month
-1 day
Now
+1 day
+1 month
+1 year

The interactive orbit chart above shows the body's path through the solar system and its position at the given date. Green and blue lines are shown perpendicular to the ecliptic plane: Green if the path is above the ecliptic plane, blue if it is below. (Left-click and drag to rotate the view; Right-click and drag to move the view; Use scroll wheel to zoom in our out.)

The orbital elements of Penelope are:

            e (Eccentricity)                : 0.1794358
            a (Semimajor axis)              : 2.6803136
            i (Inclination)                 : 5.75565
            Ω (Longitude of ascending node) : 156.86887
            ω (Argument of perihelion)      : 181.33806
            M (Mean anomaly)                : 78.29807
            Epoch                           : 2025 May 05

            L (Longitude of perihelion)     : 158.20019
            B (Latitude of perihelion)      : -0.13418
            P (Orbital period in years)     : 4.39            
        

The light curve chart below shows the estimated development of the minor planet's magnitude.


The all-sky chart below shows the path of the minor planet over the same period as the light curve. The current position is marked yellow.





The following chart shows the path of the minor planet in the next few days. The field of view is optimized for (~10x50) binoculars and finderscopes. A more printer-friendly version of the same chart can be found below.




Ephemerides:
Date       Time       RA (2000)    DEC (2000)    delta   radius  elong  phase   PA    magn
2025-07-03 00:00 UT   06 12 05.2   +19 30 47     3.777    2.777    9.0    3.3   246   14.0 
2025-07-03 01:44 UT   06 12 12.6   +19 30 46     3.777    2.777    9.0    3.3   246   14.0 
2025-07-04 00:00 UT   06 13 47.9   +19 30 27     3.777    2.779    9.5    3.5   247   14.0 
2025-07-05 00:00 UT   06 15 30.5   +19 30 01     3.776    2.781   10.0    3.6   249   14.0 
2025-07-06 00:00 UT   06 17 12.8   +19 29 31     3.776    2.783   10.5    3.8   250   14.0 
2025-07-07 00:00 UT   06 18 55.1   +19 28 57     3.775    2.784   11.0    4.0   252   14.0 
2025-07-08 00:00 UT   06 20 37.1   +19 28 18     3.775    2.786   11.5    4.2   253   14.1 
2025-07-09 00:00 UT   06 22 18.9   +19 27 35     3.774    2.788   12.1    4.4   254   14.1 
2025-07-10 00:00 UT   06 24 00.6   +19 26 47     3.773    2.790   12.6    4.6   255   14.1 
2025-07-11 00:00 UT   06 25 42.1   +19 25 55     3.772    2.791   13.1    4.7   256   14.1 
2025-07-12 00:00 UT   06 27 23.4   +19 24 58     3.771    2.793   13.6    4.9   257   14.1 
2025-07-13 00:00 UT   06 29 04.5   +19 23 57     3.769    2.795   14.2    5.1   257   14.1 
2025-07-14 00:00 UT   06 30 45.4   +19 22 52     3.768    2.797   14.7    5.3   258   14.1 
2025-07-15 00:00 UT   06 32 26.1   +19 21 42     3.766    2.798   15.2    5.5   259   14.1 
2025-07-16 00:00 UT   06 34 06.7   +19 20 29     3.764    2.800   15.8    5.7   260   14.1 
2025-07-17 00:00 UT   06 35 47.0   +19 19 11     3.763    2.802   16.3    5.9   260   14.1 
2025-07-18 00:00 UT   06 37 27.1   +19 17 48     3.761    2.804   16.9    6.0   261   14.2 
2025-07-19 00:00 UT   06 39 07.0   +19 16 22     3.758    2.805   17.4    6.2   262   14.2 
2025-07-20 00:00 UT   06 40 46.6   +19 14 51     3.756    2.807   18.0    6.4   262   14.2 
2025-07-21 00:00 UT   06 42 26.1   +19 13 16     3.754    2.809   18.5    6.6   263   14.2 
2025-07-22 00:00 UT   06 44 05.3   +19 11 37     3.751    2.811   19.1    6.8   263   14.2 
2025-07-23 00:00 UT   06 45 44.3   +19 09 54     3.748    2.812   19.6    7.0   264   14.2 
2025-07-24 00:00 UT   06 47 23.0   +19 08 07     3.746    2.814   20.2    7.1   264   14.2 


    Terminology:
            
    delta:  distance between minor planet and earth in AU
    radius: distance between minor planet and sun in AU
    magn:   magnitude (brightness) estimate    
    ra:     right ascension in hours (24h = 360deg)
    dec:    declination in degrees
    elong:  elongation in degrees (angle sun-earth-minor planet)    
    phase:  phase angle in degrees (angle sun-minor planet-earth)        
    AU:     Astronomical Unit (mean distance between earth and sun: 149597870.7 km
    

Orbital elements provided by the MPC (Minor Planet Center).
Calculations by a modified version of AAPlus, a C# implementation of the AA+ project by PJ Naughter from the algorithms presented in the book "Astronomical Algorithms" by Jean Meeus.
NGC2000 dso catalog and star labels from VizieR as provided by the Strasbourg astronomical Data Center.
Tycho2 catalog from the ESO archive.